Regional Weather Roundup
Issued by NWS

Home | Current Version | Previous Version | Graphics & Text | Print | Product List | Glossary On
Versions: 1 2 3 4 5 6 7 8 9 10 11 12 13 14 15 16 17 18 19 20 21 22 23 24 25 26 27 28 29 30 31 32 33 34 35 36 37 38 39 40 41 42 43 44 45 46 47 48 49 50
000
ASUS43 KDMX 252108
RWRIA

WEATHER ROUNDUP FOR IOWA
NATIONAL WEATHER SERVICE DES MOINES IA
400 PM CDT WED MAY 25 2016

NOTE: "FAIR" INDICATES FEW OR NO CLOUDS BELOW 12,000 FEET WITH NO
SIGNIFICANT WEATHER AND/OR OBSTRUCTIONS TO VISIBILITY.

* - THESE STATIONS ARE NOT NWS STATIONS...THUS NOT UNDER NWS
QUALITY CONTROL.  THEY ALSO DO NOT REPORT WEATHER SUCH
AS PRECIPITATION OR FOG.

IAZ001>003-012>014-020>022-031>034-043>046-252200-
   NORTHWEST IOWA

CITY           SKY/WX    TMP DP  RH WIND       PRES   REMARKS
CARROLL *      SUNNY     79  63  57 W10G16    29.84S HX  80
CHEROKEE *     MOSUNNY   77  63  61 SW13      29.83S
DENISON *      SUNNY     79  61  53 SW18      29.82S HX  80
LE MARS *      SUNNY     81  63  54 SW10G20   29.81F HX  82
ORANGE CITY *  SUNNY     79  63  57 SW12      29.82S HX  80
SHELDON *      PTSUNNY   79  59  50 SW10G16   29.81S HX  80
SIOUX CITY     MOSUNNY   83  63  50 W17       29.80F HX  84
SPENCER        SUNNY     80  59  48 SW12      29.82S HX  81
STORM LAKE *   SUNNY     81  57  44 SW20G25   29.83F HX  81
$$

IAZ055>058-069>071-079>083-090>094-252200-
   SOUTHWEST IOWA

CITY           SKY/WX    TMP DP  RH WIND       PRES   REMARKS
ATLANTIC *     PTSUNNY   79  63  57 S10       29.84F HX  80
AUDUBON *        N/A     79  64  61 SW8       29.86F HX  81
CLARINDA *       N/A     81  64  57 MISG      29.86F HX  82
COUNCIL BLFS * CLOUDY    77  66  69 SW12G22   29.85S
CRESTON *      SUNNY     79  63  57 SW14      29.88F HX  80
HARLAN  *      CLOUDY    77  63  61 W10       29.88S
LAMONI         SUNNY     80  64  58 S14       29.87S HX  82
RED OAK *      CLOUDY    79  64  61 SW14G22   29.85S HX  81
SHENANDOAH *   PTSUNNY   79  66  65 SW16G23   29.85S HX  81
$$

IAZ047>049-059>061-072>074-084-252200-
   CENTRAL IOWA

CITY           SKY/WX    TMP DP  RH WIND       PRES   REMARKS
AMES           CLOUDY    78  63  59 S10       29.85S HX  80
ANKENY *       SUNNY     77  64  65 SW8       29.86S
BOONE *        SUNNY     77  64  65 SW8       29.84S
CHARITON *     SUNNY     81  63  54 SW13G18   29.87S HX  82
DES MOINES     CLOUDY    78  62  57 S8        29.86S HX  80
GRINNELL*      PTSUNNY   79  63  57 S8        29.88S HX  80
KNOXVILLE *    SUNNY     79  61  53 SW7       29.86S HX  80
MARSHALLTOWN   CLOUDY    78  62  57 S15       29.85R HX  80
NEWTON *       CLOUDY    79  63  57 S9        29.87R HX  80
PELLA *        MOSUNNY   81  63  54 W7        29.88S HX  82
PERRY *          N/A     79  64  61 SW8       29.85S HX  81
$$

IAZ004>006-015-016-023>025-035-036-252200-
   NORTH CENTRAL IOWA

CITY           SKY/WX    TMP DP  RH WIND       PRES   REMARKS
ALGONA *       MOSUNNY   81  59  47 SW17      29.82F HX  81
CLARION *      PTSUNNY   77  66  69 SW13      29.84S
ESTHERVILLE    CLOUDY    81  58  45 SW13G23   29.81F HX  81
FORT DODGE *   MOSUNNY   79  63  57 SW9       29.84F HX  80
MASON CITY     CLOUDY    75  65  70 SW13      29.85S
FOREST CITY *  MOSUNNY   75  61  60 SW12G18   29.83F
WEBSTER CITY *   N/A     79  66  65 SW13      29.82F HX  81
IOWA FALLS *     N/A     79  64  61 SW12      29.86S HX  81
$$

IAZ007>011-017>019-026>030-037>042-050>054-066-252200-
   NORTHEAST IOWA

CITY           SKY/WX    TMP DP  RH WIND       PRES   REMARKS
CEDAR RAPIDS   CLOUDY    79  64  60 S10       29.86S HX  81
CHARLES CITY * PTSUNNY   77  64  65 SW12      29.85F
CLINTON *      MOSUNNY   83  65  54 S17G23    29.87F HX  85
DECORAH *      PTSUNNY   75  66  73 SW10G16   29.85S
DUBUQUE        CLOUDY    80  65  59 SW20      29.86F HX  82
MONTICELLO *   MOSUNNY   82  63  51 S16       29.85F HX  83
OELWEIN *      SUNNY     79  63  57 SW17G23   29.86S HX  80
WATERLOO       PTSUNNY   79  62  56 S13       29.84S HX  80
$$

IAZ064-065-067-068-078-252200-
   EAST CENTRAL IOWA

CITY           SKY/WX    TMP DP  RH WIND       PRES   REMARKS
DAVENPORT      CLOUDY    84  61  45 S13       29.88F HX  84
IOWA CITY      CLOUDY    81  59  47 SW12      29.87F HX  81
MT. PLEASANT * CLOUDY    84  59  42 S10       29.87F HX  84
MUSCATINE *    SUNNY     84  57  39 S16G22    29.86F HX  83
QUAD CITIES    CLOUDY    85  60  42 SW13      29.86F HX  85
$$

IAZ062-063-075>077-085>089-095>099-252200-
   SOUTHEAST IOWA

CITY           SKY/WX    TMP DP  RH WIND       PRES   REMARKS
BURLINGTON     CLOUDY    82  60  47 S10       29.87F HX  82
FAIRFIELD *      N/A    N/A N/A N/A MISG        N/A
FORT MADISON * SUNNY     84  61  45 S12G18    29.89F HX  84
KEOKUK *       SUNNY     82  64  54 S12       29.87F HX  84
OSKALOOSA *      N/A     81  61  50 S8        29.87S HX  81
OTTUMWA        CLOUDY    80  62  54 S9        29.87R HX  81
WASHINGTON *   SUNNY     81  70  69 S10       29.88S HX  84
$$

ABBREVIATIONS USED IN REMARKS
   TC - TEMPERATURES IN CELSIUS
  WCI - WIND CHILL INDEX
   HX - HEAT INDEX
  VSB - VISIBILITY
$$





USA.gov is the U.S. government's official web portal to all federal, state and local government web resources and services.